Location: Battersea Observatory
(44.4318°N, 76.3841°W)
Time: 22:49:58
(UTC-04:00)

Tiros 1 despin weight - Pass Details

Date: 25 January 2022
Orbit: 592 x 639 km, 48.2° (Epoch: 25 May)

Event Time Altitude Azimuth Distance (km) Brightness Sun altitude
Rises 21:12:23 0° 290° (WNW) 2,918 ? -43.7°
Enters shadow 21:13:48 - 291° (WNW) 2,366 ? -44.0°
Reaches altitude 10° 21:14:42 10° 292° (WNW) 2,016 - -44.1°
Maximum altitude 21:19:22 81° 19° (NNE) 649 - -44.9°
Drops below altitude 10° 21:24:03 10° 108° (ESE) 2,027 - -45.7°
Sets 21:26:23 0° 109° (ESE) 2,936 - -46.1°
